South Bend International Airport (SBN)


Airport Diagram
Current Weather/Forecast (VFR Conditions)
METAR KSBN 140154Z AUTO 35003KT 10SM CLR 20/13 A3000 RMK AO2 SLP156 T02000133 $
TAF KSBN 132322Z 1400/1424 35005KT P6SM SKC FM141500 17009KT P6SM FEW040

All Charts
General
Chart Name Download
AIRPORT DIAGRAM
TAKEOFF MINIMUMS
ALTERNATE MINIMUMS

Approaches
Chart Name Download
ILS OR LOC RWY 09R
ILS OR LOC RWY 27L
ILS RWY 27L (SA CAT I - II)
RNAV (GPS) RWY 09L
RNAV (GPS) RWY 09R
RNAV (GPS) RWY 18
RNAV (GPS) RWY 27L
RNAV (GPS) RWY 27R
RNAV (GPS) RWY 36
VOR RWY 18